KV5W Weather Reports


Display with metric or nautical units.
time (UTC)temp
F
wind
direction
speed
MPH
gust
MPH
rain 1hr
in
rain 24hr
in
rain mn
in
humidity
%
barometer
mb
20260509184526 87 293 0.0 4.0 0.00 0.00 0.00 58 1010.1
20260509183024 88 325 0.0 2.0 0.00 0.00 0.00 60 1010.1
20260509181531 87 28 0.0 2.0 0.00 0.00 0.00 60 1010.4
20260509180011 85 333 0.0 2.0 0.00 0.00 0.00 65 1010.4
20260509174522 84 105 1.0 3.0 0.00 0.00 0.00 69 1010.7
20260509173024 82 71 0.0 3.0 0.00 0.00 0.00 70 1010.9
20260509171525 83 249 0.0 2.0 0.00 0.00 0.00 69 1011.0
20260509170028 82 61 0.0 2.0 0.00 0.00 0.00 69 1010.8
20260509164515 83 108 0.0 2.0 0.00 0.00 0.00 70 1011.1
20260509163023 82 47 0.0 2.0 0.00 0.00 0.00 74 1011.0
20260509161530 80 338 0.0 2.0 0.00 0.00 0.00 76 1010.8
20260509160028 79 71 1.0 2.0 0.00 0.00 0.00 79 1010.8
20260509154519 77 197 0.0 2.0 0.00 0.00 0.00 83 1010.8
20260509153029 75 103 1.0 3.0 0.00 0.00 0.00 88 1010.7
20260509151524 73 52 0.0 1.0 0.00 0.00 0.00 90 1010.6
20260509150029 73 58 0.0 0.0 0.00 0.00 0.00 89 1010.9
20260509144533 73 159 0.0 0.0 0.00 0.00 0.00 89 1011.0
20260509143016 73 41 0.0 0.0 0.00 0.00 0.00 88 1011.2
20260509141520 73 38 0.0 0.0 0.00 0.00 0.00 88 1011.2
20260509140025 72 53 0.0 0.0 0.00 0.00 0.00 89 1011.1
20260509134527 72 51 0.0 0.0 0.00 0.00 0.00 91 1010.9
20260509133030 71 18 0.0 0.0 0.00 0.00 0.00 91 1010.8
20260509131522 71 310 0.0 0.0 0.00 0.00 0.00 91 1011.0
20260509130006 71 262 0.0 0.0 0.00 0.00 0.00 92 1011.0
20260509124506 70 205 0.0 0.0 0.00 0.00 0.00 92 1010.9
20260509123011 70 194 0.0 0.0 0.00 0.00 0.00 92 1010.9
20260509121522 70 194 0.0 3.0 0.00 0.00 0.00 91 1010.6
20260509120032 70 52 0.0 2.0 0.00 0.00 0.00 91 1010.4
20260509114507 70 41 0.0 4.0 0.00 0.00 0.00 91 1010.3
20260509113012 69 169 1.0 4.0 0.00 0.00 0.00 91 1010.1
20260509111516 69 116 0.0 2.0 0.00 0.00 0.00 91 1009.8
20260509110029 69 72 0.0 2.0 0.00 0.00 0.00 91 1009.2
20260509104522 69 80 1.0 4.0 0.00 0.00 0.00 91 1009.4
20260509103010 69 128 1.0 3.0 0.00 0.00 0.00 91 1009.5
20260509101512 69 87 0.0 2.0 0.00 0.00 0.00 91 1009.6
20260509100023 69 61 0.0 0.0 0.00 0.00 0.00 91 1009.8
20260509094524 69 89 0.0 0.0 0.00 0.00 0.00 90 1010.0
20260509091512 69 175 0.0 2.0 0.00 0.00 0.00 90 1009.9
20260509090019 69 84 0.0 2.0 0.00 0.00 0.00 90 1009.7
20260509084532 69 132 0.0 2.0 0.00 0.00 0.00 89 1009.8
20260509083034 69 51 0.0 3.0 0.00 0.00 0.00 89 1010.2
20260509081513 69 119 1.0 3.0 0.00 0.00 0.00 89 1010.4
20260509080035 69 114 0.0 2.0 0.00 0.00 0.00 88 1010.6
20260509074518 69 123 0.0 0.0 0.00 0.00 0.00 88 1011.0
20260509073022 69 134 0.0 0.0 0.00 0.00 0.00 88 1010.8
20260509071530 69 134 0.0 0.0 0.00 0.00 0.00 88 1010.9
20260509070014 69 170 0.0 0.0 0.00 0.00 0.00 87 1010.9
20260509064521 70 267 0.0 6.0 0.00 0.00 0.00 87 1010.7
20260509063023 70 111 0.0 1.0 0.00 0.00 0.00 86 1011.0
20260509061526 70 246 0.0 4.0 0.00 0.00 0.00 85 1010.8
20260509060028 71 103 1.0 2.0 0.00 0.00 0.00 85 1011.5
20260509054516 71 76 0.0 2.0 0.00 0.00 0.00 84 1011.8
20260509053022 71 108 0.0 2.0 0.00 0.00 0.00 84 1011.7
20260509051523 71 190 0.0 2.0 0.00 0.00 0.00 84 1011.5
20260509050039 71 96 0.0 3.0 0.00 0.00 0.00 84 1011.4
20260509044527 71 63 0.0 2.0 0.00 0.00 0.00 84 1011.0
20260509043018 71 143 0.0 3.0 0.00 0.00 0.00 83 1010.9
20260509041522 71 126 0.0 2.0 0.00 0.00 0.00 83 1010.8
20260509040028 71 136 0.0 3.0 0.00 0.00 0.00 82 1010.6
20260509034526 72 80 0.0 2.0 0.00 0.00 0.00 82 1010.6
20260509033020 72 104 0.0 4.0 0.00 0.00 0.00 81 1010.7
20260509031531 72 297 0.0 2.0 0.00 0.00 0.00 80 1010.4
20260509030035 72 346 0.0 2.0 0.00 0.00 0.00 80 1010.3
20260509024525 72 159 1.0 3.0 0.00 0.00 0.00 79 1010.2
20260509023036 72 137 0.0 2.0 0.00 0.00 0.00 78 1009.9
20260509021530 73 94 0.0 3.0 0.00 0.00 0.00 78 1009.5
20260509020026 73 143 0.0 2.0 0.00 0.00 0.00 77 1009.5
20260509014523 73 76 0.0 3.0 0.00 0.00 0.00 76 1009.2
20260509013026 73 105 0.0 0.0 0.00 0.00 0.00 76 1009.1
20260509011528 73 60 0.0 6.0 0.00 0.00 0.00 75 1009.0
20260509010019 74 69 0.0 4.0 0.00 0.00 0.00 73 1008.8
20260509004536 74 59 1.0 3.0 0.00 0.00 0.00 72 1009.0
20260509003028 75 140 0.0 2.0 0.00 0.00 0.00 71 1008.9
20260509001528 75 90 0.0 3.0 0.00 0.00 0.00 70 1008.7
20260509000037 76 123 0.0 3.0 0.00 0.00 0.00 69 1008.6
20260508234509 76 55 2.0 6.0 0.00 0.00 0.00 67 1008.4
20260508233012 77 111 2.0 8.0 0.00 0.00 0.00 65 1008.7
20260508231510 77 96 2.0 9.0 0.00 0.00 0.00 65 1009.0
20260508230012 78 84 0.0 2.0 0.00 0.00 0.00 64 1009.5
20260508224511 78 250 0.0 2.0 0.00 0.00 0.00 64 1010.1
20260508223012 78 92 2.0 6.0 0.00 0.00 0.00 61 1009.8
20260508221513 78 88 0.0 6.0 0.00 0.00 0.00 60 1009.8
20260508220012 79 116 1.0 3.0 0.00 0.00 0.00 59 1009.7
20260508214514 79 134 0.0 2.0 0.00 0.00 0.00 58 1010.5
20260508213022 80 134 0.0 4.0 0.00 0.00 0.00 56 1010.2
20260508211511 81 265 0.0 4.0 0.00 0.00 0.00 54 1010.2
20260508210016 80 102 2.0 5.0 0.00 0.00 0.00 57 1010.1
20260508204516 82 253 0.0 4.0 0.00 0.00 0.00 54 1010.2
20260508203018 81 344 0.0 3.0 0.00 0.00 0.00 57 1009.9
20260508201519 80 94 0.0 4.0 0.00 0.00 0.00 55 1010.4
20260508200019 80 144 0.0 3.0 0.00 0.00 0.00 55 1010.8
20260508194526 81 84 0.0 4.0 0.00 0.00 0.00 50 1011.0
20260508193019 82 79 0.0 3.0 0.00 0.00 0.00 49 1011.2
20260508191520 81 68 0.0 3.0 0.00 0.00 0.00 52 1011.4
20260508190023 81 52 0.0 3.0 0.00 0.00 0.00 52 1011.6